This is the latest recevied weather packets stored in our database for station/object N3TJJ-2. If no packets are shown the sender has not sent any weather packets the latest 10 day(s).
| Time | Temp. | Humidity | Pressure | Rain* | Wind** | Luminosity | Snow |
|---|---|---|---|---|---|---|---|
| 1777930154 | 22.78° C | 39% | 1010 hPa | 0 mm | - | - | - |
| 1777929795 | 22.78° C | 39% | 1010.1 hPa | 0 mm | - | - | - |
| 1777929438 | 22.78° C | 39% | 1010.1 hPa | 0 mm | - | - | - |
| 1777929081 | 22.78° C | 40% | 1010.1 hPa | 0 mm | - | - | - |
| 1777928732 | 23.33° C | 38% | 1010.2 hPa | 0 mm | - | - | - |
| 1777928397 | 22.78° C | 39% | 1010.1 hPa | 0 mm | - | - | - |
| 1777927996 | 23.33° C | 39% | 1010.2 hPa | 0 mm | - | - | - |
| 1777927636 | 22.78° C | 39% | 1010.1 hPa | 0 mm | - | - | - |
| 1777927275 | 22.78° C | 40% | 1010.2 hPa | 0 mm | - | - | - |
| 1777926923 | 22.78° C | 37% | 1010.2 hPa | 0 mm | - | - | - |
| 1777926554 | 22.78° C | 40% | 1010.3 hPa | 0 mm | - | - | - |
| 1777926195 | 22.78° C | 39% | 1010.4 hPa | 0 mm | - | - | - |
| 1777925840 | 22.78° C | 39% | 1010.4 hPa | 0 mm | - | - | - |
| 1777925477 | 22.22° C | 39% | 1010.5 hPa | 0 mm | - | - | - |
| 1777925116 | 22.78° C | 38% | 1010.7 hPa | 0 mm | - | - | - |
| 1777924766 | 22.22° C | 40% | 1010.7 hPa | 0 mm | - | - | - |
| 1777924395 | 22.22° C | 41% | 1010.9 hPa | 0 mm | - | - | - |
| 1777924038 | 22.22° C | 41% | 1011 hPa | 0 mm | - | - | - |
| 1777923674 | 21.67° C | 40% | 1011 hPa | 0 mm | - | - | - |
| 1777923316 | 22.22° C | 39% | 1011.2 hPa | 0 mm | - | - | - |
| 1777923009 | 21.67° C | 41% | 1011.2 hPa | 0 mm | - | - | - |
| 1777922600 | 21.67° C | 38% | 1011.4 hPa | 0 mm | - | - | - |
| 1777922237 | 21.67° C | 39% | 1011.4 hPa | 0 mm | - | - | - |
| 1777921877 | 22.22° C | 39% | 1011.5 hPa | 0 mm | - | - | - |
| 1777921516 | 21.67° C | 39% | 1011.4 hPa | 0 mm | - | - | - |
* Rain latest hour (hover to see other rain measurements)
** Current wind speed in m/s (hover to see current wind gust speed)